Flag for U.S.A. Weather past 2 weeks in McAllen, Texas, U.S.A.

Now
88 °F

Clear.


Feels Like: 97 °F
Forecast: 81 / 101 °F
Wind: 17 mph from Southeast

Location: Miller International Airport

Current Time: Aug 4, 2015 at 10:16:56 PM

Latest Report: Aug 4, 2015 at 9:53 PM


Visibility: 10 mi

Pressure: 29.92 "Hg

Humidity: 63%

Dew point: 74 °F

Location of McAllenLocation

Historic Weather in McAllen — Graph

°F

McAllen temperature yesterday

Maximum temperature yesterday: 103 °F (at 2:53 PM)
Minimum temperature yesterday: 80 °F (at 3:53 AM)
Average temperature yesterday: 90 °F

Past Weeks' High & Low Weather Summary

 TemperatureHumidityPressure
High105 °F (Jul 26, 2:53 PM)88% (Jul 31, 6:53 AM)30.05 "Hg (Jul 31, 6:53 AM)
Low77 °F (Jul 31, 6:53 AM)24% (Aug 3, 2:53 PM)29.78 "Hg (Aug 3, 5:53 PM)
Average90 °F61%29.91 "Hg
* Reported Jul 20 8:53 PM — Aug 4 8:53 PM, McAllen, Weather by CustomWeather, © 2015

Note: Actual official high and low records may vary slightly from our data, if they occured in-between our weather recording intervals... More about our weather records

Advertising

McAllen weather history for previous 24 hours

 ConditionsComfort  
Time TempWeatherWind HumidityBarometerVisibility
8:53 PM
Tue, Aug 4
89 °FSunny.16 mph61%29.89 "Hg10 mi
7:53 PM93 °FSunny.20 mph52%29.87 "Hg9 mi
6:53 PM96 °FSunny.23 mph47%29.86 "Hg10 mi
5:53 PM99 °FSunny.23 mph39%29.86 "Hg10 mi
4:53 PM101 °FSunny.22 mph36%29.85 "Hg10 mi
3:53 PM103 °FScattered clouds.14 mph35%29.85 "Hg10 mi
2:53 PM103 °FPassing clouds.15 mph37%29.87 "Hg10 mi
1:53 PM101 °FPassing clouds.15 mph38%29.88 "Hg10 mi
12:53 PM99 °FPassing clouds.13 mph41%29.90 "Hg10 mi
11:53 AM97 °FSunny.18 mph46%29.93 "Hg10 mi
10:53 AM93 °FSunny.17 mph52%29.93 "Hg10 mi
9:53 AM90 °FSunny.15 mph59%29.93 "Hg10 mi
8:53 AM86 °FSunny.14 mph70%29.93 "Hg9 mi
7:53 AM81 °FClear.7 mph82%29.93 "Hg8 mi
6:53 AM80 °FClear.8 mph85%29.92 "Hg9 mi
5:53 AM81 °FClear.7 mph82%29.90 "Hg8 mi
4:53 AM82 °FClear.7 mph79%29.88 "Hg8 mi
3:53 AM83 °FClear.9 mph77%29.88 "Hg9 mi
2:53 AM84 °FClear.10 mph74%29.88 "Hg9 mi
1:53 AM84 °FClear.13 mph74%29.89 "Hg10 mi
12:53 AM86 °FPassing clouds.13 mph72%29.89 "Hg9 mi
11:53 PM
Mon, Aug 3
86 °FPassing clouds.15 mph72%29.89 "Hg8 mi
11:00 PM87 °FPassing clouds.16 mph69%29.88 "Hg9 mi
Weather by CustomWeather, © 2015

See weather overviewHow to use our weather pages